Location: Unspecified
(0.0000°N, 0.0000°E)
Time: 06:29:42
(UTC+00:00)

Vanguard 2 - Pass Details

Date: 24 September 2019
Orbit: 554 x 2937 km, 32.9° (Epoch: 14 October)

Event Time Altitude Azimuth Distance (km) Brightness Sun altitude
Rises 01:43:19 0° 272° (W) 6,789 - -62.2°
Reaches altitude 10° 01:49:42 10° 285° (WNW) 5,689 - -60.6°
Maximum altitude 02:01:26 22° 329° (NNW) 4,262 - -57.7°
Exits shadow 02:09:52 12° 11° (N) 4,396 11.4 -55.6°
Drops below altitude 10° 02:10:57 10° 16° (NNE) 4,505 11.5 -55.3°
Sets 02:15:16 0° 31° (NNE) 5,106 12.0 -54.3°
